Date String (YYYY-MM-DD hh:mm:ss) UTC,Instrument flags,absolute air pressure of the measurement (hPa),sample flow rate (lpm),inlet stack bypass flow (lpm),air temperature of the measurement (°C),ambient temperature measured by the external sensor (°C),aerosol sample conditioner tube jacket temperature (°C),OPC LED temperature (°C),internal box temperature (°C),relative humidity of the measurement (%),span deviation,mass concentration of particles derived from Lorenz-Mie calculation of OPC scattering (μg/m³),mass concentration of particles derived from Lorenz-Mie calculation of OPC scattering (μg/m³),mass concentration of particles derived from Lorenz-Mie calculation of OPC scattering (μg/m³)
DateTimeUTC,F1_M11,P_M11,Q1_M11,Q2_M11,T1_M11,T2_M11,T3_M11,T4_M11,T5_M11,U1_M11,ZSPAN_M11,X0_M11,X2_M11,X1_M11
2024-02-04 10:00:00,SystemResetWarning,0822.4,5.01,000.00,018.4,017.8,000.0,026.8,020.0,24.0,0000.0,0008.83,0002.10,0001.13
2024-02-04 10:01:00,SystemResetWarning,0822.4,5.00,000.00,018.4,017.8,000.0,026.8,020.0,24.0,0000.0,0008.17,0002.02,0001.14
2024-02-04 10:02:00,SystemResetWarning,0822.4,4.99,000.00,018.3,017.8,000.0,026.8,020.0,24.0,0000.0,0007.96,0001.94,0001.15
2024-02-04 10:03:00,SystemResetWarning,0822.4,4.99,000.00,018.3,017.7,000.0,026.8,020.0,24.1,0000.0,0008.05,0002.01,0001.20
2024-02-04 10:04:00,SystemResetWarning,0822.4,5.00,000.00,018.3,017.7,000.0,026.8,020.0,24.2,0000.0,0008.69,0002.09,0001.27
2024-02-04 10:05:00,SystemResetWarning,0822.4,5.00,000.00,018.3,017.7,000.0,026.8,020.0,24.3,0000.0,0008.40,0002.15,0001.37
2024-02-04 10:06:00,SystemResetWarning,0822.4,5.00,000.00,018.3,017.7,000.0,026.8,020.0,24.3,0000.0,0008.32,0002.22,0001.49
2024-02-04 10:07:00,SystemResetWarning,0822.4,5.00,000.00,018.3,017.7,000.0,026.8,020.0,24.3,0000.0,0007.32,0002.33,0001.65
2024-02-04 10:08:00,SystemResetWarning,0822.4,5.00,000.00,018.3,017.7,000.0,026.8,020.0,24.1,0000.0,0006.85,0002.49,0001.82
2024-02-04 10:09:00,SystemResetWarning,0822.4,4.99,000.00,018.3,017.7,000.0,026.8,020.0,24.1,0000.0,0007.03,0002.71,0002.04
2024-02-04 10:10:00,SystemResetWarning,0822.4,5.00,000.00,018.3,017.7,000.0,026.8,020.0,24.1,0000.0,0006.98,0002.89,0002.29
2024-02-04 10:11:00,SystemResetWarning,0822.6,5.00,000.00,018.3,017.7,000.0,026.8,020.0,24.1,0000.0,0005.48,0002.97,0002.51
2024-02-04 10:12:00,SystemResetWarning,0822.5,5.01,000.00,018.3,017.7,000.0,026.8,020.0,24.1,0000.0,0005.27,0003.09,0002.72
2024-02-04 10:13:00,SystemResetWarning,0822.7,5.00,000.00,018.3,017.7,000.0,026.8,020.0,24.1,0000.0,0005.41,0003.20,0002.94
2024-02-04 10:14:00,SystemResetWarning,0822.8,4.99,000.00,018.3,017.7,000.0,026.8,020.0,24.1,0000.0,0005.43,0003.27,0003.10
2024-02-04 10:15:00,SystemResetWarning,0822.7,4.99,000.00,018.3,017.7,000.0,026.8,020.0,24.2,0000.0,0004.54,0003.34,0003.20
2024-02-04 10:16:00,SystemResetWarning,0822.6,5.00,000.00,018.3,017.7,000.0,026.8,020.0,24.2,0000.0,0004.17,0003.41,0003.27
2024-02-04 10:17:00,SystemResetWarning,0822.5,5.00,000.00,018.3,017.7,000.0,026.8,020.0,24.1,0000.0,0004.29,0003.46,0003.32
2024-02-04 10:18:00,SystemResetWarning,0822.6,5.00,000.00,018.3,017.7,000.0,026.8,020.0,24.1,0000.0,0004.29,0003.47,0003.35
2024-02-04 10:19:00,SystemResetWarning,0822.5,5.00,000.00,018.3,017.7,000.0,026.8,020.0,24.0,0000.0,0004.28,0003.48,0003.37
2024-02-04 10:20:00,SystemResetWarning,0822.4,5.00,000.00,018.3,017.7,000.0,026.8,020.0,24.0,0000.0,0004.31,0003.47,0003.38
2024-02-04 10:21:00,SystemResetWarning,0822.5,5.01,000.00,018.3,017.7,000.0,026.8,020.0,23.9,0000.0,0004.33,0003.46,0003.36
2024-02-04 10:22:00,SystemResetWarning,0822.4,5.00,000.00,018.3,017.7,000.0,026.8,020.0,23.9,0000.0,0004.33,0003.46,0003.34
2024-02-04 10:23:00,SystemResetWarning,0822.6,5.00,000.00,018.3,017.7,000.0,026.8,020.0,24.0,0000.0,0004.32,0003.45,0003.34
2024-02-04 10:24:00,SystemResetWarning,0822.8,5.00,000.00,018.3,017.7,000.0,026.8,020.0,24.0,0000.0,0004.29,0003.43,0003.32
2024-02-04 10:25:00,SystemResetWarning,0822.7,5.01,000.00,018.3,017.7,000.0,026.8,020.0,24.1,0000.0,0004.32,0003.45,0003.33
2024-02-04 10:26:00,SystemResetWarning,0822.8,4.99,000.00,018.3,017.6,000.0,026.8,020.0,24.1,0000.0,0004.26,0003.46,0003.35
2024-02-04 10:27:00,SystemResetWarning,0822.7,4.99,000.00,018.3,017.6,000.0,026.8,020.0,24.2,0000.0,0004.32,0003.50,0003.37
2024-02-04 10:28:00,SystemResetWarning,0822.7,5.00,000.00,018.3,017.6,000.0,026.9,020.0,24.2,0000.0,0004.31,0003.52,0003.40
2024-02-04 10:29:00,SystemResetWarning,0822.8,5.01,000.00,018.3,017.6,000.0,026.9,020.0,24.2,0000.0,0004.37,0003.57,0003.45
2024-02-04 10:30:00,SystemResetWarning,0822.5,5.02,000.00,018.3,017.6,000.0,026.9,020.1,24.2,0000.0,0004.41,0003.60,0003.48
2024-02-04 10:31:00,SystemResetWarning,0822.7,5.00,000.00,018.4,018.1,000.0,027.0,020.4,24.1,0000.0,0004.74,0003.64,0003.52
2024-02-04 10:32:00,SystemResetWarning,0822.8,5.01,000.00,018.6,018.9,000.0,027.1,020.9,23.8,0000.0,0006.45,0003.68,0003.56
2024-02-04 10:33:00,SystemResetWarning,0822.6,5.00,000.00,018.8,019.0,000.0,027.0,020.9,23.5,0000.0,0007.12,0003.68,0003.54
2024-02-04 10:34:00,SystemResetWarning,0822.6,4.99,000.00,018.8,018.9,000.0,027.0,020.7,23.4,0000.0,0007.82,0003.69,0003.53
2024-02-04 10:35:00,SystemResetWarning,0822.6,4.99,000.00,018.8,018.7,000.0,027.0,020.5,23.3,0000.0,0007.97,0003.72,0003.55
2024-02-04 10:36:00,SystemResetWarning,0822.6,5.01,000.00,018.7,018.6,000.0,026.9,020.4,23.3,0000.0,0008.18,0003.68,0003.52
2024-02-04 10:37:00,SystemResetWarning,0822.6,5.01,000.00,018.7,018.5,000.0,026.9,020.4,23.3,0000.0,0008.13,0003.60,0003.43
2024-02-04 10:38:00,SystemResetWarning,0822.9,5.00,000.00,018.7,018.4,000.0,026.9,020.3,23.3,0000.0,0008.14,0003.51,0003.32
2024-02-04 10:39:00,SystemResetWarning,0822.6,5.00,000.00,018.7,018.3,000.0,026.9,020.3,23.3,0000.0,0008.14,0003.45,0003.25
2024-02-04 10:40:00,SystemResetWarning,0823.0,5.00,000.00,018.7,018.3,000.0,026.9,020.2,23.2,0000.0,0008.10,0003.38,0003.17
2024-02-04 10:41:00,SystemResetWarning,0822.8,5.00,000.00,018.7,018.2,000.0,026.9,020.2,23.2,0000.0,0008.06,0003.32,0003.08
2024-02-04 10:42:00,SystemResetWarning,0822.8,5.00,000.00,018.6,018.2,000.0,026.9,020.2,23.2,0000.0,0007.83,0003.22,0002.91
2024-02-04 10:43:00,SystemResetWarning,0822.9,5.00,000.00,018.6,018.1,000.0,026.9,020.2,23.0,0000.0,0006.44,0003.12,0002.76
2024-02-04 10:44:00,SystemResetWarning,0823.2,5.00,000.00,018.6,018.1,000.0,026.9,020.2,23.0,0000.0,0005.69,0003.10,0002.74
2024-02-04 10:45:00,SystemResetWarning,0823.0,5.01,000.00,018.6,018.1,000.0,026.9,020.2,23.0,0000.0,0004.66,0003.09,0002.74
2024-02-04 10:46:00,SystemResetWarning,0822.8,5.01,000.00,018.6,018.1,000.0,026.9,020.2,23.0,0000.0,0004.42,0003.04,0002.71
2024-02-04 10:47:00,SystemResetWarning,0822.8,5.00,000.00,018.6,018.1,000.0,026.9,020.2,22.9,0000.0,0003.88,0003.04,0002.72
2024-02-04 10:48:00,SystemResetWarning,0823.1,4.99,000.00,018.6,018.0,000.0,026.9,020.2,22.9,0000.0,0004.04,0003.13,0002.80
2024-02-04 10:49:00,SystemResetWarning,0822.8,5.00,000.00,018.5,018.0,000.0,026.9,020.1,22.8,0000.0,0004.06,0003.15,0002.86
2024-02-04 10:50:00,SystemResetWarning,0823.0,5.00,000.00,018.5,018.0,000.0,026.9,020.1,22.8,0000.0,0004.93,0003.19,0002.87
2024-02-04 10:51:00,SystemResetWarning,0823.0,5.01,000.00,018.5,018.0,000.0,026.9,020.1,22.8,0000.0,0006.16,0003.20,0002.84
2024-02-04 10:52:00,SystemResetWarning,0822.9,5.00,000.00,018.5,018.0,000.0,026.9,020.1,22.8,0000.0,0006.87,0003.23,0002.81
2024-02-04 10:53:00,SystemResetWarning,0822.9,4.99,000.00,018.5,018.0,000.0,026.9,020.1,22.8,0000.0,0007.21,0003.24,0002.81
2024-02-04 10:54:00,SystemResetWarning,0822.9,4.99,000.00,018.5,018.0,000.0,026.9,020.1,22.8,0000.0,0007.45,0003.27,0002.79
2024-02-04 10:55:00,SystemResetWarning,0822.9,5.00,000.00,018.5,018.0,000.0,026.8,020.1,22.8,0000.0,0007.62,0003.29,0002.75
2024-02-04 10:56:00,SystemResetWarning,0823.0,5.02,000.00,018.5,018.0,000.0,026.8,020.1,22.8,0000.0,0007.80,0003.28,0002.69
2024-02-04 10:57:00,SystemResetWarning,0823.0,5.00,000.00,018.5,017.9,000.0,026.8,020.1,22.7,0000.0,0007.91,0003.27,0002.61
2024-02-04 10:58:00,SystemResetWarning,0822.9,4.98,000.00,018.5,017.9,000.0,026.8,020.1,22.7,0000.0,0008.15,0003.32,0002.55
2024-02-04 10:59:00,SystemResetWarning,0823.0,5.01,000.00,018.5,017.9,000.0,026.8,020.0,22.7,0000.0,0008.31,0003.32,0002.47
